Flight Track Log - Related Links

Times and Time Zones

All times are in EDT time to prevent confusion due to time zone crossing. See the EJA122 flight status page for this flight to view local times or setup timezone preferences in your user account.


Time Position Orientation Groundspeed Altitude Reporting Facility
EDT Latitude Longitude Course Direction KTS MPH feet Rate Location/Type
Sun 04:40:27 PM 29.2456 -94.9169 264° West 198 228 3,100  Level Houston Center
Sun 04:41:22 PM 29.2639 -94.9794 289° West 230 265 4,900 2,341 Climbing Houston Center
Sun 04:42:30 PM 29.3300 -95.0336 324° Northwest 263 303 7,900 2,356 Climbing Houston Center
Sun 04:43:37 PM 29.3981 -95.0875 325° Northwest 275 316 10,200 1,591 Climbing Houston Center
Sun 04:44:42 PM 29.4614 -95.1419 323° Northwest 291 335 11,400 1,276 Climbing Houston Center
Sun 04:45:44 PM 29.5294 -95.2156 317° Northwest 328 377 12,900 1,452 Climbing Houston Center
Sun 04:46:46 PM 29.6297 -95.2475 345° North 360 414 14,400 1,403 Climbing Houston Center
Sun 04:47:48 PM 29.7314 -95.2725 348° North 365 420 15,800 1,355 Climbing Houston Center
Sun 04:48:50 PM 29.8300 -95.2964 348° North 362 417 17,200 1,355 Climbing Houston Center
Sun 04:49:52 PM 29.9489 -95.3267 348° North 363 418 18,600 1,258 Climbing Houston Center
Sun 04:50:54 PM 30.0506 -95.3514 348° North 370 426 19,800 1,210 Climbing Houston Center
Sun 04:51:56 PM 30.1544 -95.3783 347° North 379 436 21,100 1,200 Climbing Houston Center
Sun 04:52:59 PM 30.2581 -95.4036 348° North 379 436 22,300 1,152 Climbing Houston Center
Sun 04:54:01 PM 30.3625 -95.4311 347° North 383 441 23,500 823 Climbing Houston Center
Sun 04:55:03 PM 30.4681 -95.4567 348° North 385 443 24,000 242 Climbing Houston Center
Sun 04:56:05 PM 30.6039 -95.4908 348° North 414 476 24,000  Level Houston Center
Sun 04:57:07 PM 30.7175 -95.5169 349° North 427 491 24,000  Level Houston Center
Sun 04:58:09 PM 30.8375 -95.5447 349° North 435 501 24,000  Level Houston Center
Sun 04:59:11 PM 30.9600 -95.5711 350° North 442 509 24,000  Level Houston Center
Sun 05:00:13 PM 31.1058 -95.6044 349° North 441 507 24,000  Level Houston Center
Sun 05:01:15 PM 31.2269 -95.6319 349° North 440 506 24,000  Level Houston Center
Sun 05:02:17 PM 31.3486 -95.6611 348° North 441 507 24,000  Level Houston Center
Sun 05:03:19 PM 31.4564 -95.7281 332° Northwest 435 501 24,000 -145 Level Houston Center
Sun 05:04:21 PM 31.5642 -95.7989 331° Northwest 440 506 23,700 -1,065 Descending Houston Center
Sun 05:05:23 PM 31.6717 -95.8714 330° Northwest 441 507 21,800 -1,839 Descending Houston Center
Sun 05:06:25 PM 31.7772 -95.9400 331° Northwest 436 502 19,900 -2,081 Descending Houston Center
Sun 05:07:27 PM 31.8933 -96.0189 330° Northwest 410 472 17,500 -2,081 Descending Houston Center
Sun 05:08:29 PM 31.9903 -96.0833 331° Northwest 400 460 15,600 -1,776 Descending Houston Center
Sun 05:09:32 PM 32.0803 -96.1447 330° Northwest 395 455 13,800 -1,824 Descending Houston Center
Sun 05:10:34 PM 32.1747 -96.2094 330° Northwest 392 451 11,800 -2,053 Descending Houston Center
Sun 05:11:26 PM 32.2500 -96.2500 336° Northwest 311 358 9,900 -2,192 Descending Dallas / Fort Worth TRACON

Login

Don't have an account? Register now (free) for customized features, flight alerts, and more!